When you browse on this site, cookies collect data to enhance your experience and personalize the content and advertising you see.
Visit our Privacy Policy to learn more. By continuing to use the site, you agree to this use of cookies and data.
  • In Spain
  • List of Countries
  • For 7 days
  • Water Temperature
  • Satellite Maps
  • Weather Map
  • Weather Widgets
  • user-avatar
    Login

    Hourly Weather Lattakia

    Today, 22 April, Monday

    Time Temperature Precipitation Wind Pressure Humidity
    00:00 +11°C° 0 mm 3 mps 757 mmHg 60%
    01:00 +11°C° 0 mm 3 mps 757 mmHg 61%
    02:00 +13°C° 0 mm 2 mps 756 mmHg 63%
    03:00 +12°C° 0 mm 2 mps 756 mmHg 64%
    04:00 +12°C° 0 mm 2 mps 756 mmHg 65%
    05:00 +11°C° 0 mm 3 mps 756 mmHg 67%
    06:00 +12°C° 0 mm 3 mps 756 mmHg 62%
    07:00 +14°C° 0 mm 4 mps 756 mmHg 58%
    08:00 +17°C° 0 mm 3 mps 756 mmHg 53%
    09:00 +17°C° 0 mm 4 mps 756 mmHg 51%
    10:00 +18°C° 0 mm 4 mps 757 mmHg 49%
    11:00 +17°C° 0 mm 5 mps 757 mmHg 47%
    12:00 +17°C° 0 mm 5 mps 757 mmHg 48%
    13:00 +18°C° 0 mm 4 mps 757 mmHg 48%
    14:00 +18°C° 0 mm 4 mps 758 mmHg 49%
    15:00 +17°C° 0 mm 4 mps 758 mmHg 52%
    16:00 +17°C° 0 mm 4 mps 758 mmHg 56%
    17:00 +15°C° 0 mm 4 mps 759 mmHg 59%
    18:00 +14°C° 0 mm 4 mps 759 mmHg 60%
    19:00 +13°C° 0 mm 4 mps 760 mmHg 61%
    20:00 +12°C° 0 mm 3 mps 760 mmHg 62%
    21:00 +12°C° 0 mm 3 mps 761 mmHg 66%
    22:00 +12°C° 0 mm 4 mps 761 mmHg 70%
    23:00 +12°C° 0 mm 4 mps 762 mmHg 74%

    Tomorrow, 23 April, Tuesday

    Time Temperature Precipitation Wind Pressure Humidity
    00:00 +12°C° 0 mm 4 mps 762 mmHg 76%
    01:00 +12°C° 0 mm 4 mps 762 mmHg 79%
    02:00 +12°C° 0 mm 3 mps 762 mmHg 81%
    03:00 +12°C° 0 mm 4 mps 762 mmHg 82%
    04:00 +12°C° 0 mm 4 mps 763 mmHg 83%
    05:00 +12°C° 0 mm 4 mps 763 mmHg 83%
    06:00 +14°C° 0 mm 4 mps 763 mmHg 76%
    07:00 +15°C° 0 mm 4 mps 764 mmHg 70%
    08:00 +18°C° 0 mm 4 mps 764 mmHg 63%
    09:00 +19°C° 0 mm 4 mps 764 mmHg 60%
    10:00 +19°C° 0 mm 4 mps 765 mmHg 58%
    11:00 +20°C° 0 mm 4 mps 765 mmHg 55%
    12:00 +20°C° 0 mm 4 mps 765 mmHg 55%
    13:00 +20°C° 0 mm 4 mps 765 mmHg 55%
    14:00 +20°C° 0 mm 3 mps 764 mmHg 56%
    15:00 +20°C° 0 mm 3 mps 764 mmHg 58%
    16:00 +19°C° 0 mm 2 mps 764 mmHg 60%
    17:00 +19°C° 0 mm 1 mps 764 mmHg 62%
    18:00 +18°C° 0 mm 1 mps 765 mmHg 67%
    19:00 +15°C° 0 mm 1 mps 765 mmHg 73%
    20:00 +13°C° 0 mm 0 mps 766 mmHg 79%
    21:00 +14°C° 0 mm 1 mps 766 mmHg 75%
    22:00 +14°C° 0 mm 1 mps 766 mmHg 71%
    23:00 +13°C° 0 mm 1 mps 767 mmHg 66%

    Day after tomorrow, 24 April, Wednesday

    Time Temperature Precipitation Wind Pressure Humidity
    00:00 +13°C° 0 mm 1 mps 767 mmHg 63%
    01:00 +13°C° 0 mm 1 mps 766 mmHg 60%
    02:00 +13°C° 0 mm 1 mps 766 mmHg 57%
    03:00 +13°C° 0 mm 1 mps 766 mmHg 55%
    04:00 +13°C° 0 mm 1 mps 766 mmHg 53%
    05:00 +13°C° 0 mm 1 mps 766 mmHg 51%
    06:00 +15°C° 0 mm 1 mps 766 mmHg 48%
    07:00 +19°C° 0 mm 1 mps 766 mmHg 45%
    08:00 +21°C° 0 mm 1 mps 767 mmHg 41%
    09:00 +22°C° 0 mm 1 mps 767 mmHg 39%
    10:00 +24°C° 0 mm 1 mps 766 mmHg 38%
    11:00 +25°C° 0 mm 2 mps 766 mmHg 36%
    12:00 +25°C° 0 mm 2 mps 766 mmHg 37%
    13:00 +25°C° 0 mm 3 mps 765 mmHg 39%
    14:00 +25°C° 0 mm 4 mps 765 mmHg 40%
    15:00 +24°C° 0 mm 3 mps 765 mmHg 45%
    16:00 +24°C° 0 mm 3 mps 764 mmHg 50%
    17:00 +23°C° 0 mm 2 mps 764 mmHg 55%
    18:00 +20°C° 0 mm 2 mps 764 mmHg 56%
    19:00 +18°C° 0 mm 2 mps 764 mmHg 56%
    20:00 +18°C° 0 mm 1 mps 765 mmHg 57%
    21:00 +18°C° 0 mm 1 mps 765 mmHg 53%
    22:00 +18°C° 0 mm 1 mps 765 mmHg 49%
    23:00 +18°C° 0 mm 1 mps 764 mmHg 44%

    25 April, Thursday

    Time Temperature Precipitation Wind Pressure Humidity
    00:00 +16°C° 0 mm 1 mps 764 mmHg 42%
    01:00 +16°C° 0 mm 1 mps 764 mmHg 40%
    02:00 +16°C° 0 mm 1 mps 764 mmHg 38%
    03:00 +16°C° 0 mm 1 mps 764 mmHg 37%
    04:00 +16°C° 0 mm 1 mps 764 mmHg 36%
    05:00 +16°C° 0 mm 1 mps 764 mmHg 35%
    06:00 +19°C° 0 mm 1 mps 764 mmHg 35%
    07:00 +22°C° 0 mm 1 mps 764 mmHg 35%
    08:00 +22°C° 0 mm 0 mps 764 mmHg 35%
    09:00 +25°C° 0 mm 1 mps 763 mmHg 36%
    10:00 +26°C° 0 mm 2 mps 763 mmHg 36%
    11:00 +27°C° 0 mm 2 mps 763 mmHg 36%
    12:00 +27°C° 0 mm 2 mps 762 mmHg 38%
    13:00 +27°C° 0 mm 3 mps 762 mmHg 39%
    14:00 +27°C° 0 mm 3 mps 762 mmHg 40%
    15:00 +26°C° 0 mm 2 mps 761 mmHg 44%
    16:00 +25°C° 0 mm 2 mps 761 mmHg 47%
    17:00 +24°C° 0 mm 1 mps 761 mmHg 51%
    18:00 +23°C° 0 mm 1 mps 761 mmHg 51%
    19:00 +21°C° 0 mm 1 mps 761 mmHg 51%
    20:00 +20°C° 0 mm 1 mps 762 mmHg 51%
    21:00 +19°C° 0 mm 1 mps 762 mmHg 49%
    22:00 +17°C° 0 mm 0 mps 762 mmHg 47%
    23:00 +17°C° 0 mm 0 mps 761 mmHg 45%

    26 April, Friday

    Time Temperature Precipitation Wind Pressure Humidity
    00:00 +17°C° 0 mm 0 mps 761 mmHg 45%
    01:00 +17°C° 0 mm 0 mps 761 mmHg 45%
    02:00 +16°C° 0 mm 0 mps 760 mmHg 45%
    03:00 +18°C° 0 mm 1 mps 760 mmHg 45%
    04:00 +18°C° 0 mm 1 mps 760 mmHg 46%
    05:00 +18°C° 0 mm 1 mps 760 mmHg 46%
    06:00 +20°C° 0 mm 1 mps 760 mmHg 45%
    07:00 +23°C° 0 mm 1 mps 760 mmHg 43%
    08:00 +23°C° 0 mm 0 mps 760 mmHg 41%
    09:00 +26°C° 0 mm 1 mps 760 mmHg 41%
    10:00 +27°C° 0 mm 2 mps 760 mmHg 40%
    11:00 +27°C° 0 mm 3 mps 760 mmHg 39%
    12:00 +27°C° 0 mm 3 mps 759 mmHg 40%
    13:00 +27°C° 0 mm 3 mps 759 mmHg 42%
    14:00 +27°C° 0 mm 3 mps 758 mmHg 43%
    15:00 +27°C° 0 mm 2 mps 758 mmHg 47%
    16:00 +26°C° 0 mm 1 mps 758 mmHg 51%
    17:00 +25°C° 0 mm 1 mps 758 mmHg 55%
    18:00 +23°C° 0 mm 1 mps 758 mmHg 56%
    19:00 +22°C° 0 mm 1 mps 759 mmHg 58%
    20:00 +20°C° 0 mm 1 mps 759 mmHg 59%
    21:00 +20°C° 0 mm 1 mps 759 mmHg 57%
    22:00 +20°C° 0 mm 1 mps 759 mmHg 55%
    23:00 +20°C° 0 mm 1 mps 759 mmHg 52%

    27 April, Saturday

    Time Temperature Precipitation Wind Pressure Humidity
    00:00 +20°C° 0 mm 1 mps 758 mmHg 52%
    01:00 +20°C° 0 mm 1 mps 758 mmHg 51%
    02:00 +20°C° 0 mm 1 mps 758 mmHg 50%
    03:00 +20°C° 0 mm 1 mps 758 mmHg 51%
    04:00 +19°C° 0 mm 2 mps 758 mmHg 52%
    05:00 +19°C° 0 mm 2 mps 758 mmHg 53%
    06:00 +21°C° 0 mm 2 mps 759 mmHg 54%
    07:00 +23°C° 0 mm 2 mps 759 mmHg 55%
    08:00 +24°C° 0 mm 3 mps 759 mmHg 57%
    09:00 +25°C° 0 mm 2 mps 759 mmHg 53%
    10:00 +26°C° 0 mm 2 mps 759 mmHg 49%
    11:00 +27°C° 0 mm 1 mps 759 mmHg 46%
    12:00 +28°C° 0 mm 2 mps 758 mmHg 45%
    13:00 +28°C° 0 mm 2 mps 758 mmHg 44%
    14:00 +29°C° 0 mm 3 mps 757 mmHg 43%
    15:00 +28°C° 0 mm 3 mps 758 mmHg 48%
    16:00 +27°C° 0 mm 3 mps 758 mmHg 52%
    17:00 +26°C° 0 mm 3 mps 758 mmHg 57%
    18:00 +25°C° 0 mm 3 mps 758 mmHg 60%
    19:00 +23°C° 0 mm 2 mps 759 mmHg 62%
    20:00 +21°C° 0 mm 2 mps 759 mmHg 65%
    21:00 +21°C° 0 mm 2 mps 759 mmHg 63%
    22:00 +20°C° 0 mm 2 mps 759 mmHg 61%
    23:00 +20°C° 0 mm 2 mps 759 mmHg 59%
    Show more